This demonstration page uses our WeatherBlox Daily Observations layout. Learn more.

Left ArrowRight Arrow

Hourly Observations for February 8, 2022

Temp ( °F °C ) Dew Point ( °F °C ) Humidity (%) Winds ( mph kmh ) Pressure ( in mb ) Visibility ( mi km ) Precip ( " mm )
12:56 am 00:56 Clear 36 2.2 18 -7.8 48 48 WSW 13 20 29.99 1016 10 16 0.00 0.00
1:56 am 01:56 Clear 35 1.7 18 -7.8 50 50 WSW 9 15 29.97 1015 10 16 0.00 0.00
2:56 am 02:56 Clear 34 1.1 18 -7.8 52 52 WSW 12 19 29.94 1014 10 16 0.00 0.00
3:56 am 03:56 Clear 32 0 18 -7.8 56 56 WSW 12 19 29.91 1013 10 16 0.00 0.00
4:56 am 04:56 Clear 33 0.6 18 -7.8 54 54 WSW 8 13 29.90 1013 10 16 0.00 0.00
5:56 am 05:56 Clear 35 1.7 19 -7.2 52 52 W 9 15 29.91 1013 10 16 0.00 0.00
6:56 am 06:56 Clear 32 0 19 -7.2 59 59 WNW 12 19 29.95 1014 10 16 0.00 0.00
7:56 am 07:56 Sunny 33 0.6 18 -7.8 54 54 NW 12 19 29.98 1015 10 16 0.00 0.00
8:56 am 08:56 Sunny 44 6.7 20 -6.7 38 38 NNW 20 31 29.97 1015 10 16 0.00 0.00
9:56 am 09:56 Sunny 50 10 20 -6.7 30 30 N 22 35 30.00 1016 10 16 0.00 0.00
10:56 am 10:56 Sunny 53 11.7 17 -8.3 24 24 N 25 41 30.03 1017 10 16 0.00 0.00
11:56 am 11:56 Mostly Sunny 54 12.2 16 -8.9 22 22 NNW 24 39 30.05 1018 10 16 0.00 0.00
12:56 pm 12:56 Sunny 55 12.8 15 -9.4 20 20 NNW 25 41 30.04 1017 10 16 0.00 0.00
1:56 pm 13:56 Sunny 57 13.9 13 -10.6 17 17 NW 26 43 30.04 1017 10 16 0.00 0.00
2:56 pm 14:56 Sunny 57 13.9 13 -10.6 17 17 NW 21 33 30.03 1017 10 16 0.00 0.00
3:56 pm 15:56 Sunny 56 13.3 11 -11.7 17 17 NNW 25 41 30.03 1017 10 16 0.00 0.00
4:56 pm 16:56 Sunny 55 12.8 14 -10 20 20 NW 16 26 30.04 1017 10 16 0.00 0.00
5:56 pm 17:56 Partly Cloudy 51 10.6 12 -11.1 21 21 NW 14 22 30.06 1018 10 16 0.00 0.00
6:56 pm 18:56 Clear 42 5.6 10 -12.2 27 27 NW 8 13 30.08 1019 10 16 0.00 0.00
7:56 pm 19:56 Clear 41 5 12 -11.1 30 30 WNW 8 13 30.08 1019 10 16 0.00 0.00
8:56 pm 20:56 Clear 44 6.7 13 -10.6 28 28 WNW 8 13 30.05 1018 10 16 0.00 0.00
9:56 pm 21:56 Clear 40 4.4 12 -11.1 32 32 W 10 17 30.05 1018 10 16 0.00 0.00
10:56 pm 22:56 Clear 36 2.2 11 -11.7 35 35 WSW 7 11 30.04 1017 10 16 0.00 0.00
11:56 pm 23:56 Clear 33 0.6 11 -11.7 40 40 W 8 13 30.04 1017 10 16 0.00 0.00

Powered by AerisWeather